DW9080 Weather Reports


time (UTC)temp
C
wind
direction
speed
KPH
gust
KPH
rain 1hr
cm
rain 24hr
cm
rain mn
cm
humidity
%
barometer
mb
20260510021135 22 253 0.0 1.6 0.00 0.00 0.00 40 1001.7
20260510020535 22 236 0.0 1.6 0.00 0.00 0.00 42 1001.5
20260510020035 22 215 0.0 1.6 0.00 0.00 0.00 42 1001.5
20260510015536 22 224 0.0 3.2 0.00 0.00 0.00 43 1001.5
20260510015035 22 241 0.0 3.2 0.00 0.00 0.00 42 1001.4
20260510014528 22 240 0.0 1.6 0.00 0.00 0.00 42 1001.4
20260510014022 22 219 0.0 1.6 0.00 0.00 0.00 41 1001.4
20260510013524 22 214 0.0 1.6 0.00 0.00 0.00 41 1001.3
20260510013023 22 214 0.0 1.6 0.00 0.00 0.00 41 1001.2
20260510012522 22 228 0.0 1.6 0.00 0.00 0.00 42 1001.1
20260510012022 22 226 0.0 1.6 0.00 0.00 0.00 43 1000.9
20260510011523 22 229 0.0 1.6 0.00 0.00 0.00 43 1000.8
20260510011021 22 224 0.0 1.6 0.00 0.00 0.00 44 1000.7
20260510010522 22 219 0.0 1.6 0.00 0.00 0.00 44 1000.6
20260510010022 22 226 0.0 1.6 0.00 0.00 0.00 45 1000.7
20260510005521 22 229 0.0 16.1 0.00 0.00 0.00 46 1000.6
20260510005022 22 200 3.2 16.1 0.00 0.00 0.00 45 1000.5
20260510004521 22 218 0.0 1.6 0.00 0.00 0.00 43 1000.4
20260510004025 22 253 0.0 8.0 0.00 0.00 0.00 42 1000.3
20260510003530 23 248 0.0 8.0 0.00 0.00 0.00 42 1000.2
20260510003020 23 188 0.0 1.6 0.00 0.00 0.00 41 1000.2
20260510002519 23 236 0.0 20.9 0.00 0.00 0.00 42 1000.0
20260510002020 23 250 8.0 22.5 0.00 0.00 0.00 42 999.9
20260510001551 23 225 9.7 24.1 0.00 0.00 0.00 42 999.9
20260510001019 23 256 12.9 24.1 0.00 0.00 0.00 42 1000.0
20260510000517 23 250 14.5 27.4 0.00 0.00 0.00 43 1000.1
20260510000018 23 255 8.0 27.4 0.00 0.00 0.00 43 1000.1
20260509235619 23 264 3.2 24.1 0.00 0.00 0.00 42 1000.2
20260509235017 24 211 12.9 24.1 0.00 0.00 0.00 40 1000.2
20260509234628 25 219 0.0 3.2 0.00 0.00 0.00 37 1000.1
20260509234102 25 233 0.0 1.6 0.00 0.00 0.00 34 1000.0
20260509233601 25 259 0.0 0.0 0.00 0.00 0.00 34 999.5
20260509233100 25 291 0.0 0.0 0.00 0.00 0.00 34 999.4
20260509232603 25 288 0.0 0.0 0.00 0.00 0.00 33 999.4
20260509232059 25 286 0.0 0.0 0.00 0.00 0.00 34 999.2
20260509231601 26 286 0.0 0.0 0.00 0.00 0.00 33 999.1
20260509231045 26 346 0.0 1.6 0.00 0.00 0.00 32 999.0
20260509230542 26 285 0.0 1.6 0.00 0.00 0.00 32 998.9
20260509230043 26 11 0.0 1.6 0.00 0.00 0.00 31 998.9
20260509225541 26 246 0.0 17.7 0.00 0.00 0.00 31 998.8
20260509225041 26 278 0.0 20.9 0.00 0.00 0.00 29 998.9
20260509224526 26 256 0.0 1.6 0.00 0.00 0.00 30 999.0
20260509224024 26 249 0.0 1.6 0.00 0.00 0.00 31 998.9
20260509223523 26 255 0.0 1.6 0.00 0.00 0.00 32 998.9
20260509223024 26 263 0.0 3.2 0.00 0.00 0.00 30 999.0
20260509222524 26 262 0.0 9.7 0.00 0.00 0.00 30 998.9
20260509222022 26 229 1.6 14.5 0.00 0.00 0.00 30 998.8
20260509221505 26 226 6.4 25.7 0.00 0.00 0.00 31 998.8
20260509221107 26 246 11.3 25.7 0.00 0.00 0.00 31 998.7
20260509220504 27 248 8.0 27.4 0.00 0.00 0.00 29 998.6
20260509220006 28 240 8.0 27.4 0.00 0.00 0.00 25 998.5
20260509215503 28 239 0.0 20.9 0.00 0.00 0.00 25 998.4
20260509215003 27 252 3.2 24.1 0.00 0.00 0.00 28 998.4
20260509214550 27 246 12.9 24.1 0.00 0.00 0.00 29 998.5
20260509214049 28 246 0.0 1.6 0.00 0.00 0.00 28 998.6
20260509213549 28 248 0.0 1.6 0.00 0.00 0.00 28 998.6
20260509213051 28 241 0.0 1.6 0.00 0.00 0.00 27 998.7
20260509212549 28 221 0.0 1.6 0.00 0.00 0.00 29 998.7
20260509212049 28 252 0.0 1.6 0.00 0.00 0.00 29 998.6
20260509211552 27 226 0.0 1.6 0.00 0.00 0.00 28 998.6
20260509211048 27 218 0.0 1.6 0.00 0.00 0.00 28 998.6
20260509210550 28 243 0.0 1.6 0.00 0.00 0.00 27 998.7
20260509205549 28 256 0.0 3.2 0.00 0.00 0.00 26 998.7
20260509205046 29 240 0.0 1.6 0.00 0.00 0.00 25 998.8
20260509204546 30 236 0.0 1.6 0.00 0.00 0.00 25 998.8
20260509204044 30 254 0.0 19.3 0.00 0.00 0.00 25 998.9
20260509203546 30 256 9.7 19.3 0.00 0.00 0.00 24 999.0
20260509203046 29 253 0.0 1.6 0.00 0.00 0.00 26 999.0
20260509202543 30 226 0.0 1.6 0.00 0.00 0.00 25 999.2
20260509202047 30 239 0.0 4.8 0.00 0.00 0.00 25 999.2
20260509201554 30 260 0.0 16.1 0.00 0.00 0.00 25 999.3
20260509201039 30 210 1.6 16.1 0.00 0.00 0.00 26 999.4
20260509200538 29 259 3.2 20.9 0.00 0.00 0.00 26 999.6
20260509200038 29 238 9.7 20.9 0.00 0.00 0.00 26 999.6
20260509195541 30 237 0.0 20.9 0.00 0.00 0.00 26 999.8
20260509195037 30 252 4.8 20.9 0.00 0.00 0.00 25 999.9
20260509194518 30 224 0.0 1.6 0.00 0.00 0.00 26 999.8
20260509194016 30 297 0.0 1.6 0.00 0.00 0.00 27 999.9
20260509193514 29 236 0.0 1.6 0.00 0.00 0.00 26 1000.1
20260509193014 29 242 0.0 1.6 0.00 0.00 0.00 26 1000.2
20260509192513 29 236 0.0 19.3 0.00 0.00 0.00 28 1000.2
20260509192013 28 255 6.4 19.3 0.00 0.00 0.00 27 1000.4
20260509191613 28 263 0.0 6.4 0.00 0.00 0.00 27 1000.4
20260509191054 29 273 0.0 1.6 0.00 0.00 0.00 26 1000.5
20260509190554 29 273 0.0 1.6 0.00 0.00 0.00 26 1000.4
20260509190107 28 241 0.0 1.6 0.00 0.00 0.00 28 1000.5
20260509185551 28 264 0.0 3.2 0.00 0.00 0.00 28 1000.7
20260509185051 28 246 0.0 1.6 0.00 0.00 0.00 28 1000.7
20260509184556 28 232 0.0 3.2 0.00 0.00 0.00 26 1000.7
20260509184030 28 246 0.0 9.7 0.00 0.00 0.00 28 1000.7
20260509183529 28 239 1.6 9.7 0.00 0.00 0.00 28 1000.8
20260509183033 28 236 0.0 3.2 0.00 0.00 0.00 29 1000.8
20260509182526 28 243 0.0 22.5 0.00 0.00 0.00 29 1000.9
20260509182025 28 221 6.4 22.5 0.00 0.00 0.00 30 1001.0
20260509181525 28 239 8.0 20.9 0.00 0.00 0.00 30 1000.9
20260509181007 27 224 0.0 1.6 0.00 0.00 0.00 31 1001.0
20260509180507 27 246 0.0 1.6 0.00 0.00 0.00 30 1001.1
20260509180012 28 246 0.0 1.6 0.00 0.00 0.00 30 1001.2
20260509175509 27 246 0.0 3.2 0.00 0.00 0.00 32 1001.2
20260509175003 27 246 0.0 3.2 0.00 0.00 0.00 32 1001.3
20260509174502 27 238 0.0 8.0 0.00 0.00 0.00 34 1001.5
20260509174043 27 246 0.0 8.0 0.00 0.00 0.00 33 1001.5
20260509173543 27 163 0.0 1.6 0.00 0.00 0.00 33 1001.6
20260509173048 27 229 0.0 1.6 0.00 0.00 0.00 32 1001.6
20260509172542 27 229 0.0 1.6 0.00 0.00 0.00 34 1001.7
20260509172041 27 226 0.0 1.6 0.00 0.00 0.00 33 1001.8
20260509171543 26 249 0.0 3.2 0.00 0.00 0.00 35 1001.9
20260509171026 26 258 0.0 3.2 0.00 0.00 0.00 35 1001.9
20260509170525 26 232 0.0 1.6 0.00 0.00 0.00 36 1002.0
20260509170025 26 280 0.0 1.6 0.00 0.00 0.00 35 1002.0
20260509165523 26 233 0.0 1.6 0.00 0.00 0.00 35 1002.1
20260509165025 25 245 0.0 1.6 0.00 0.00 0.00 37 1002.2
20260509164522 25 236 0.0 1.6 0.00 0.00 0.00 37 1002.2
20260509164022 25 208 0.0 1.6 0.00 0.00 0.00 37 1002.2
20260509163520 25 246 0.0 1.6 0.00 0.00 0.00 38 1002.3
20260509163038 25 231 0.0 1.6 0.00 0.00 0.00 38 1002.3
20260509162519 25 259 0.0 1.6 0.00 0.00 0.00 39 1002.3
20260509162120 25 236 0.0 1.6 0.00 0.00 0.00 39 1002.4
20260509161524 25 226 0.0 1.6 0.00 0.00 0.00 39 1002.5
20260509161017 24 214 0.0 1.6 0.00 0.00 0.00 40 1002.4
20260509160516 24 246 0.0 9.7 0.00 0.00 0.00 41 1002.5
20260509160015 23 256 1.6 9.7 0.00 0.00 0.00 41 1002.5
20260509155514 23 249 0.0 12.9 0.00 0.00 0.00 42 1002.5
20260509155013 23 264 6.4 12.9 0.00 0.00 0.00 41 1002.6
20260509154513 23 238 0.0 1.6 0.00 0.00 0.00 42 1002.5
20260509154012 23 260 0.0 1.6 0.00 0.00 0.00 42 1002.7
20260509153512 23 250 0.0 1.6 0.00 0.00 0.00 41 1002.7
20260509153020 23 228 0.0 1.6 0.00 0.00 0.00 41 1002.7
20260509152510 23 246 0.0 1.6 0.00 0.00 0.00 41 1002.5
20260509152010 23 260 0.0 1.6 0.00 0.00 0.00 40 1002.6
20260509151508 23 246 0.0 1.6 0.00 0.00 0.00 41 1002.6
20260509151053 23 243 0.0 1.6 0.00 0.00 0.00 41 1002.6
20260509150548 22 260 0.0 1.6 0.00 0.00 0.00 45 1002.5
20260509150103 22 256 0.0 0.0 0.00 0.00 0.00 46 1002.5
20260509145547 22 243 0.0 1.6 0.00 0.00 0.00 47 1002.6
20260509145045 22 265 0.0 1.6 0.00 0.00 0.00 47 1002.5
20260509144547 22 252 0.0 1.6 0.00 0.00 0.00 47 1002.5
20260509144025 21 219 0.0 1.6 0.00 0.00 0.00 49 1002.5
20260509143525 21 222 0.0 1.6 0.00 0.00 0.00 48 1002.5
20260509143033 21 236 0.0 1.6 0.00 0.00 0.00 49 1002.5
20260509142522 21 257 0.0 1.6 0.00 0.00 0.00 51 1002.6
20260509142022 21 257 0.0 1.6 0.00 0.00 0.00 51 1002.5
20260509141526 21 263 0.0 1.6 0.00 0.00 0.00 51 1002.4
20260509141010 21 242 0.0 1.6 0.00 0.00 0.00 52 1002.4
20260509140509 21 273 0.0 0.0 0.00 0.00 0.00 53 1002.5
20260509140009 21 207 0.0 0.0 0.00 0.00 0.00 53 1002.5
20260509135510 21 59 0.0 0.0 0.00 0.00 0.00 54 1002.6
20260509135007 20 59 0.0 0.0 0.00 0.00 0.00 56 1002.5
20260509134506 20 60 0.0 0.0 0.00 0.00 0.00 58 1002.5
20260509134003 19 60 0.0 0.0 0.00 0.00 0.00 59 1002.4
20260509133503 19 60 0.0 0.0 0.00 0.00 0.00 59 1002.4
20260509133003 18 64 0.0 0.0 0.00 0.00 0.00 60 1002.4
20260509132502 18 63 0.0 0.0 0.00 0.00 0.00 62 1002.4
20260509132058 17 63 0.0 0.0 0.00 0.00 0.00 63 1002.3
20260509131559 17 65 0.0 0.0 0.00 0.00 0.00 65 1002.2
20260509131056 17 54 0.0 1.6 0.00 0.00 0.00 65 1002.1
20260509130555 17 63 0.0 1.6 0.00 0.00 0.00 66 1002.0
20260509130057 -17 0.0 0.0 0.00 0.00 0.00 1001.9
20260509125553 -17 0.0 0.0 0.00 0.00 0.00 1002.0
20260509125051 -17 0.0 0.0 0.00 0.00 0.00 1001.9
20260509124556 -17 0.0 0.0 0.00 0.00 0.00 1001.9
20260509124051 -17 0.0 0.0 0.00 0.00 0.00 1001.9
20260509123548 -17 0.0 0.0 0.00 0.00 0.00 1001.8
20260509123046 -17 0.0 0.0 0.00 0.00 0.00 1001.8
20260509122544 -17 0.0 0.0 0.00 0.00 0.00 1001.7
20260509122043 -17 0.0 0.0 0.00 0.00 0.00 1001.7
20260509121551 -17 0.0 0.0 0.00 0.00 0.00 1001.6
20260509121040 -17 0.0 0.0 0.00 0.00 0.00 1001.6
20260509120520 -17 0.0 0.0 0.00 0.00 0.00 1001.6
20260509120019 -17 0.0 0.0 0.00 0.00 0.00 1001.5
20260509115518 -17 0.0 0.0 0.00 0.00 0.00 1001.5
20260509115017 -17 0.0 0.0 0.00 0.00 0.00 1001.5
20260509114536 -17 0.0 0.0 0.00 0.00 0.00 1001.5
20260509114014 -17 0.0 0.0 0.00 0.00 0.00 1001.5
20260509113601 -17 0.0 0.0 0.00 0.00 0.00 1001.4
20260509113102 -17 0.0 0.0 0.00 0.00 0.00 1001.5
20260509112552 -17 0.0 0.0 0.00 0.00 0.00 1001.4
20260509112050 -17 0.0 0.0 0.00 0.00 0.00 1001.4
20260509111549 -17 0.0 0.0 0.00 0.00 0.00 1001.4
20260509111052 -17 0.0 0.0 0.00 0.00 0.00 1001.5
20260509110530 -17 0.0 0.0 0.00 0.00 0.00 1001.4
20260509110028 -17 0.0 0.0 0.00 0.00 0.00 1001.3
20260509105526 -17 0.0 0.0 0.00 0.00 0.00 1001.3
20260509105025 -17 0.0 0.0 0.00 0.00 0.00 1001.3
20260509104523 -17 0.0 0.0 0.00 0.00 0.00 1001.2
20260509104021 -17 0.0 0.0 0.00 0.00 0.00 1001.2
20260509103503 -17 0.0 0.0 0.00 0.00 0.00 1001.2
20260509103002 -17 0.0 0.0 0.00 0.00 0.00 1001.2
20260509102600 -17 0.0 0.0 0.00 0.00 0.00 1001.3
20260509102059 -17 0.0 0.0 0.00 0.00 0.00 1001.3
20260509101558 -17 0.0 0.0 0.00 0.00 0.00 1001.2
20260509101058 -17 0.0 0.0 0.00 0.00 0.00 1001.2
20260509100536 -17 0.0 0.0 0.00 0.00 0.00 1001.2
20260509100035 -17 0.0 0.0 0.00 0.00 0.00 1001.2
20260509095534 -17 0.0 0.0 0.00 0.00 0.00 1001.2
20260509095032 -17 0.0 0.0 0.00 0.00 0.00 1001.2
20260509094543 -17 0.0 0.0 0.00 0.00 0.00 1001.1
20260509094029 -17 0.0 0.0 0.00 0.00 0.00 1001.2
20260509093510 -17 0.0 0.0 0.00 0.00 0.00 1001.2
20260509093009 -17 0.0 0.0 0.00 0.00 0.00 1001.2
20260509092512 17 68 0.0 0.0 0.00 0.00 0.00 63 1001.1
20260509092007 17 68 0.0 0.0 0.00 0.00 0.00 63 1001.1
20260509091506 17 68 0.0 0.0 0.00 0.00 0.00 63 1000.9
20260509091007 17 68 0.0 0.0 0.00 0.00 0.00 63 1000.9
20260509090549 18 68 0.0 0.0 0.00 0.00 0.00 62 1001.0
20260509090101 18 67 0.0 0.0 0.00 0.00 0.00 62 1001.0
20260509085550 18 67 0.0 0.0 0.00 0.00 0.00 61 1000.9
20260509085052 18 68 0.0 0.0 0.00 0.00 0.00 61 1000.9
20260509084550 18 68 0.0 0.0 0.00 0.00 0.00 61 1000.9
20260509084049 18 65 0.0 0.0 0.00 0.00 0.00 61 1000.9
20260509083531 18 65 0.0 0.0 0.00 0.00 0.00 61 1001.1
20260509083044 18 65 0.0 0.0 0.00 0.00 0.00 61 1001.2
20260509082529 18 65 0.0 0.0 0.00 0.00 0.00 60 1001.2
20260509082029 18 63 0.0 0.0 0.00 0.00 0.00 60 1001.1
20260509081530 18 64 0.0 0.0 0.00 0.00 0.00 60 1001.1
20260509081032 18 63 0.0 0.0 0.00 0.00 0.00 60 1000.9
20260509080511 18 63 0.0 0.0 0.00 0.00 0.00 59 1000.9
20260509080014 18 63 0.0 0.0 0.00 0.00 0.00 59 1001.0
20260509075511 19 63 0.0 0.0 0.00 0.00 0.00 59 1001.1
20260509075012 19 63 0.0 1.6 0.00 0.00 0.00 59 1001.1
20260509074526 19 63 0.0 1.6 0.00 0.00 0.00 59 1001.2
20260509074012 19 66 0.0 0.0 0.00 0.00 0.00 58 1001.3
20260509073553 19 73 0.0 0.0 0.00 0.00 0.00 58 1001.3
20260509073106 20 69 0.0 0.0 0.00 0.00 0.00 57 1001.4
20260509072553 20 65 0.0 0.0 0.00 0.00 0.00 57 1001.4
20260509072052 20 77 0.0 0.0 0.00 0.00 0.00 56 1001.4
20260509071553 20 79 0.0 0.0 0.00 0.00 0.00 55 1001.5
20260509071052 20 79 0.0 0.0 0.00 0.00 0.00 55 1001.5
20260509070541 20 79 0.0 0.0 0.00 0.00 0.00 54 1001.6
20260509070048 20 75 0.0 0.0 0.00 0.00 0.00 54 1001.7
20260509065540 20 75 0.0 0.0 0.00 0.00 0.00 54 1001.7
20260509065041 20 83 0.0 0.0 0.00 0.00 0.00 54 1001.7
20260509064541 20 124 0.0 0.0 0.00 0.00 0.00 55 1001.8
20260509064039 20 79 0.0 0.0 0.00 0.00 0.00 55 1001.8
20260509063540 20 76 0.0 0.0 0.00 0.00 0.00 55 1001.8
20260509063047 21 61 0.0 0.0 0.00 0.00 0.00 54 1001.8
20260509062540 21 111 0.0 0.0 0.00 0.00 0.00 53 1001.7
20260509062040 21 61 0.0 1.6 0.00 0.00 0.00 53 1001.7
20260509061539 21 66 0.0 1.6 0.00 0.00 0.00 52 1001.8
20260509061039 21 70 0.0 1.6 0.00 0.00 0.00 52 1001.8
20260509060538 21 68 0.0 1.6 0.00 0.00 0.00 52 1001.8
20260509060039 21 68 0.0 1.6 0.00 0.00 0.00 53 1001.9
20260509055538 21 51 0.0 1.6 0.00 0.00 0.00 53 1001.8
20260509055038 21 54 0.0 1.6 0.00 0.00 0.00 53 1001.8
20260509054538 21 124 0.0 1.6 0.00 0.00 0.00 53 1002.0
20260509054038 21 76 0.0 4.8 0.00 0.00 0.00 53 1001.8
20260509053538 21 67 0.0 6.4 0.00 0.00 0.00 54 1001.8
20260509053043 21 61 0.0 1.6 0.00 0.00 0.00 54 1002.0
20260509052537 21 51 0.0 1.6 0.00 0.00 0.00 55 1001.9
20260509052038 21 74 0.0 8.0 0.00 0.00 0.00 56 1001.9
20260509051543 21 63 0.0 8.0 0.00 0.00 0.00 56 1001.9
20260509051036 21 41 0.0 3.2 0.00 0.00 0.00 56 1001.9
20260509050536 21 62 0.0 4.8 0.00 0.00 0.00 56 1002.0
20260509050040 21 68 0.0 3.2 0.00 0.00 0.00 56 1001.9
20260509045518 21 84 0.0 4.8 0.00 0.00 0.00 56 1001.9
20260509045019 21 86 0.0 3.2 0.00 0.00 0.00 57 1001.9
20260509044519 21 56 0.0 1.6 0.00 0.00 0.00 57 1001.9
20260509044022 21 82 0.0 1.6 0.00 0.00 0.00 57 1001.8
20260509043518 21 49 0.0 1.6 0.00 0.00 0.00 57 1001.9
20260509043002 22 61 0.0 1.6 0.00 0.00 0.00 55 1001.8
20260509042500 22 57 0.0 1.6 0.00 0.00 0.00 54 1001.7
20260509042100 22 98 0.0 8.0 0.00 0.00 0.00 52 1001.7
20260509041601 22 79 0.0 9.7 0.00 0.00 0.00 52 1001.6
20260509041100 22 88 0.0 9.7 0.00 0.00 0.00 52 1001.3
20260509040603 22 56 0.0 1.6 0.00 0.00 0.00 51 1001.4
20260509040042 23 61 0.0 1.6 0.00 0.00 0.00 47 1001.5
20260509035541 23 96 0.0 1.6 0.00 0.00 0.00 43 1001.4
20260509035041 24 69 0.0 1.6 0.00 0.00 0.00 40 1001.3
20260509034542 24 61 0.0 0.0 0.00 0.00 0.00 37 1001.1
20260509034040 24 256 0.0 0.0 0.00 0.00 0.00 37 1000.7
20260509033541 24 257 0.0 0.0 0.00 0.00 0.00 38 1000.6
20260509033034 24 257 0.0 0.0 0.00 0.00 0.00 37 1000.5
20260509032526 25 257 0.0 0.0 0.00 0.00 0.00 37 1000.3
20260509032023 25 257 0.0 1.6 0.00 0.00 0.00 36 1000.3
20260509031527 25 246 0.0 1.6 0.00 0.00 0.00 36 1000.2
20260509031023 25 240 0.0 1.6 0.00 0.00 0.00 36 1000.1
20260509030523 25 217 0.0 1.6 0.00 0.00 0.00 36 1000.0
20260509030017 25 210 0.0 1.6 0.00 0.00 0.00 36 999.9
20260509025507 25 240 0.0 1.6 0.00 0.00 0.00 36 999.8
20260509025004 24 233 0.0 1.6 0.00 0.00 0.00 36 999.8
20260509024505 25 221 0.0 1.6 0.00 0.00 0.00 36 999.7
20260509024004 25 222 0.0 1.6 0.00 0.00 0.00 36 999.7
20260509023504 25 203 0.0 1.6 0.00 0.00 0.00 36 999.7
20260509023047 25 225 0.0 1.6 0.00 0.00 0.00 36 999.8
20260509022547 25 236 0.0 1.6 0.00 0.00 0.00 36 999.6
20260509022047 25 246 0.0 1.6 0.00 0.00 0.00 37 999.6
20260509021547 25 238 0.0 1.6 0.00 0.00 0.00 37 999.5